Date,TemperatureHighF,TemperatureAvgF,TemperatureLowF,DewpointHighF,DewpointAvgF,DewpointLowF,HumidityHigh,HumidityAvg,HumidityLow,PressureMaxIn,PressureMinIn,WindSpeedMaxMPH,WindSpeedAvgMPH,GustSpeedMaxMPH,PrecipitationSumIn
2013-2-1,3,-5,-14,-6,-15,-21,74,62,44,0.00,40.00,6,4,13,0.01
2013-2-2,17,1,-14,1,-8,-21,82,65,43,0.00,40.00,4,2,12,0.00
2013-2-3,12,2,-12,0,-6,-18,79,68,47,0.00,40.00,9,4,22,0.00
2013-2-4,15,-5,-21,-4,-15,-29,81,64,29,0.00,40.00,6,2,11,0.00
2013-2-5,20,10,-7,13,4,-12,88,77,50,0.00,40.00,9,4,18,0.09
2013-2-6,22,8,-10,17,3,-16,92,79,59,0.00,40.00,4,2,9,0.08
2013-2-7,22,19,17,20,17,12,93,91,82,0.00,40.00,6,4,12,0.01
2013-2-8,28,11,-2,14,5,-6,88,78,52,0.00,40.00,7,2,15,0.00
2013-2-9,29,15,-4,18,9,-9,94,76,52,0.00,40.00,6,3,16,0.00
2013-2-10,31,26,19,31,26,18,100,96,93,0.00,40.00,7,4,20,0.27
2013-2-11,32,26,19,32,24,15,100,93,85,0.00,40.00,10,5,21,0.31
2013-2-12,22,18,13,19,14,11,93,85,74,0.00,40.00,6,3,11,0.04
2013-2-13,39,25,12,30,21,10,98,87,66,0.00,40.00,5,2,9,0.00
2013-2-14,29,23,14,27,19,8,96,83,67,0.00,40.00,9,6,17,0.04
2013-2-15,19,8,-4,8,1,-8,85,74,52,0.00,40.00,10,4,16,0.01
2013-2-16,17,0,-14,2,-8,-20,82,70,48,0.00,40.00,7,3,12,0.00
2013-2-17,27,4,-21,5,-9,-29,75,57,34,0.00,40.00,6,3,14,0.00
2013-2-18,34,25,15,29,19,5,97,77,61,0.00,40.00,8,5,18,0.06
2013-2-19,25,9,3,24,3,-7,94,75,56,0.00,40.00,14,10,26,0.03
2013-2-20,20,11,4,5,2,-3,79,67,51,0.00,40.00,12,8,24,0.00
2013-2-21,33,13,-9,16,5,-14,90,74,43,0.00,40.00,6,4,17,0.00
2013-2-22,26,20,15,22,17,13,94,89,82,0.00,40.00,7,4,16,0.21
2013-2-23,29,21,9,25,18,6,96,87,76,0.00,40.00,5,2,9,0.09
2013-2-24,33,25,19,24,20,18,95,84,57,0.00,40.00,4,2,7,0.03
2013-2-25,34,27,20,27,23,19,96,85,63,0.00,40.00,5,1,9,0.00
2013-2-26,37,27,17,26,22,16,97,81,52,0.00,40.00,6,4,15,0.00
2013-2-27,31,28,26,25,23,21,84,80,70,0.00,40.00,11,8,21,0.00
2013-2-28,28,24,18,24,17,11,89,76,60,0.00,40.00,11,8,24,0.00